Regional Weather Roundup
Issued by NWS

Home | Current Version | Previous Version | Graphics & Text | Print | Product List | Glossary On
Versions: 1 2 3 4 5 6 7 8 9 10 11 12 13 14 15 16 17 18 19 20 21 22 23 24 25 26 27 28 29 30 31 32 33 34 35 36 37 38 39 40 41 42 43 44 45 46 47 48 49 50
000
ASUS45 KTFX 291019
RWRMT
MONTANA HOURLY WEATHER ROUNDUP
NATIONAL WEATHER SERVICE GREAT FALLS MT
319 AM MST MON DEC 29 2014

NOTE: "FAIR" INDICATES FEW OR NO CLOUDS BELOW 12000 FEET WITH NO
SIGNIFICANT WEATHER AND/OR OBSTRUCTIONS TO VISIBILITY.

* THESE STATIONS ARE NOT UNDER NWS QUALITY CONTROL. THEY DO NOT
   REPORT WEATHER SUCH AS PRECIPITATION OR FOG.

MTZ001>007-043-291100-
WEST OF THE DIVIDE
CITY           SKY/WX    TMP DP  RH WIND       PRES   REMARKS
KALISPELL      CLOUDY    16   3  56 NE21G30   30.39R WCI  -1
MISSOULA       CLOUDY    16   5  62 SE18      30.33R
BUTTE          CLOUDY     3   0  87 CALM      30.18R
MULLAN PASS    LGT SNOW   9   3  76 VRB3      30.03R VSB 1 1/4
* ESSEX        N/A       10  -3  55 E4G10      N/A
* HAMILTON APT PTCLDY    18   3  52 NW18      30.24R WCI   2
* LINCOLN      N/A        5  -4  66 NE17G23    N/A   WCI -14
* LOOKOUT PASS N/A       13  10  88 SW4G9      N/A
* POLSON       N/A       13   7  77 NE3G9      N/A
* RONAN APT    MOCLDY    19   1  45 E15G22     N/A   WCI   5
* SEELEY LAKE  N/A        4   0  83 N1         N/A
* THOMP F APT  CLOUDY    11   6  80 N4         N/A
$$

MTZ008-052>055-291100-
SOUTHWEST MONTANA
CITY           SKY/WX    TMP DP  RH WIND       PRES   REMARKS
BOZEMAN        FOG        9   5  84 W5        30.25R VSB 3
DILLON         CLOUDY     9   3  76 NE16      30.14R WCI  -8
* W YELLOWSTON PTCLDY     3  -2  79 N/A        N/A
* THREE FORKS  MOCLDY    12   9  88 N8         N/A
* BOULDER HILL N/A        2  -3  79 N17        N/A   WCI -18
* MONIDA PASS  N/A        4   1  87 NW4        N/A
* RAYNOLDS PAS N/A        2 -36  14 N12        N/A   WCI -15
* WHITEHALL    N/A       10   2  70 NE10G18    N/A   WCI  -4
* WISE RIVER   N/A        8  -2  63 E13G19     N/A   WCI  -8
$$

MTZ009>010-012-014-046-048-049-054-291100-
EAST SLOPES AND CENTRAL MONTANA
CITY           SKY/WX    TMP DP  RH WIND       PRES   REMARKS
CUT BANK       LGT SNOW   1  -2  87 N22       30.51R VSB 1 1/4 WCI -22
GREAT FALLS    LGT SNOW   0  -2  91 N9        30.47R VSB 2 1/2 WCI -15
HELENA         CLOUDY     9   0  66 NW13      30.39R WCI  -7
MALMSTROM AFB  LGT SNOW   1   0  95 N8        30.51R WCI -13
* CONRAD       CLEAR      3  -2  79 NW14       N/A   WCI -15
* EAST GLACIER N/A        0  -5  79 E9         N/A   WCI -15
* MONARCH      N/A       -3  -8  79 SW1        N/A
* PENDROY      N/A        1  -1  91 VRB17G24    N/A   WCI -19
* SWEET GRASS  N/A        1  -2  87 N/A        N/A
* WHITE SULPH  N/A        2  -4  76 NW9G16     N/A   WCI -13
$$

MTZ011-013-016-021-035-040-045-047-050-051-291100-
NORTH CENTRAL MONTANA
CITY           SKY/WX    TMP DP  RH WIND       PRES   REMARKS
HAVRE          CLOUDY     7   1  76 NE10      30.59R WCI  -7
LEWISTOWN      LGT SNOW   1  -2  87 SW9       30.39R WCI -14
* N BAR RANCH  HAZE       5  -2  72 NW7       30.36R WCI  -7
* CHINOOK      CLOUDY     9   0  66 E3        30.61R
* CHESTER      N/A        6  -2  69 NE9G17     N/A   WCI  -8
* DENTON       N/A        6   3  87 NW11       N/A   WCI  -9
* JUDITH GAP   N/A        2   1  96 N19G24     N/A   WCI -19
* LOMA         N/A        7   3  83 N18G24     N/A   WCI -12
$$

MTZ017>020-022>027-061-062-291100-
NORTHEAST MONTANA
CITY           SKY/WX    TMP DP  RH WIND       PRES   REMARKS
GLASGOW        MOCLDY    -2  -9  72 N5        30.60R WCI -13
GLENDIVE       CLOUDY     1  -4  79 N10       30.51R WCI -15
JORDAN         CLOUDY     5   0  80 NE12      30.52R WCI -11
SIDNEY         CLEAR     -8 -11  86 NW10      30.61R WCI -26
WOLF POINT     PTCLDY    -6 -11  78 N5        30.63R WCI -18
* BEAVER HILL  N/A       -2  -6  83 N12        N/A   WCI -20
* CIRCLE       N/A        2  -3  79 NE7G13     N/A   WCI -11
* LINDSAY DVD  N/A       -3  -6  87 NW8        N/A   WCI -18
* NAVAJO       N/A      -12 -16  82 NW11       N/A   WCI -32
* PLENTYWOOD A CLEAR    -15 -18  86 NW9       30.59R WCI -33
* POPLAR APT   PTCLDY    -8 -15  71 N/A       30.62R
* SACO         N/A       -4  -9  79 N4         N/A
$$

MTZ028>042-056>058-291100-
SOUTHCENTRAL AND SOUTHEAST MONTANA
CITY           SKY/WX    TMP DP  RH WIND       PRES   REMARKS
BAKER          CLOUDY     3  -2  79 NE10      30.41R WCI -12
BILLINGS       LGT SNOW   9   7  91 NE12      30.38R VSB 2 1/2 WCI  -6
LIVINGSTON     LGT SNOW  10   5  80 E16       30.25R VSB 3    WCI  -7
MILES CITY     CLOUDY     7   0  73 NE16      30.46R WCI -11
* BIG TIMBER A MOCLDY     9   5  84 N10       30.32R VSB 1 3/4 WCI  -5
* FORSYTH APT  PTCLDY     5   1  83 N8        30.47R VSB 2 1/2 WCI  -8
* LAUREL APT   CLOUDY    10   0  64 N10        N/A   WCI  -4
* ROUNDUP APT  PTCLDY     7  -2  66 N8         N/A   WCI  -6
* ALZADA       N/A        8   4  84 NE8        N/A   WCI  -4
* REED POINT   N/A       12   8  84 NE11G16    N/A   WCI  -2
* ROSCOE HILL  N/A        7   2  80 NW4        N/A
$$

REGIONAL REPORTS...DAKOTAS
CITY           SKY/WX    TMP DP  RH WIND       PRES   REMARKS
WILLISTON      PTCLDY    -9 -15  74 N10       30.59R WCI -27
DICKINSON      CLOUDY     1  -6  72 N12       30.43R WCI -16
BEACH          CLOUDY     0  -2  91 N13       30.46R WCI -18
CROSBY         CLEAR    -13 -18  78 NW13      30.62R WCI -35
WATFORD CITY   CLEAR    -13 -18  78 CALM      30.54R
BISMARCK       CLOUDY     0  -6  75 N8        30.54R WCI -14
GRAND FORKS    PTCLDY   -11 -17  74 N7        30.61R WCI -26
FARGO          PTCLDY    -6 -11  78 N12       30.58R WCI -25
BUFFALO SD     MOCLDY     7   1  76 NE16      30.28R WCI -11
RAPID CITY     LGT SNOW   9   5  84 N13       30.30R VSB 2 1/2 WCI  -7
$$

REGIONAL REPORTS...WYOMING/IDAHO/WASHINGTON
CITY           SKY/WX    TMP DP  RH WIND       PRES   REMARKS
GILLETTE       LGT SNOW  10   7  88 N18       30.20R VSB 1    WCI  -8
SHERIDAN       LGT SNOW  10   5  80 NW13      30.30R VSB 3    WCI  -5
CODY           CLOUDY    10   9  96 N10       30.19R WCI  -4
YELLOWSTONE LA PTCLDY     1  -2  87 CALM      29.97R
SALMON         CLOUDY    19  18  96 CALM      30.10R
MULLAN PASS    LGT SNOW   9   3  76 VRB3      30.03S VSB 1 1/4
SAND POINT     HAZE      21  14  74 N26G35    30.34R WCI   4
SPOKANE        LGT SNOW  25  18  75 NE18      30.19R WCI  11
$$

REGIONAL REPORTS...ALBERTA
CITY           SKY/WX    TMP DP  RH WIND       PRES   REMARKS
CALGARY        MOCLDY     3  -2  79 N13       30.62R WCI -14
LETHBRIDGE     LGT SNOW   7   3  83 N5        30.64R WCI  -2
MEDICINE HAT   LGT SNOW   3   0  87 N5        30.68R WCI  -7
EDMONTON       LGT SNOW   1  -4  79 N10       30.80R WCI -15
WATERTON GATE  N/A        3   0  87 N3         N/A
CARDSTON       N/A        3   1  91 NW5        N/A   WCI  -7
MILK RIVER     N/A        3   0  87 N14        N/A   WCI -15
$$

REGIONAL REPORTS...SASKATCHEWAN
CITY           SKY/WX    TMP DP  RH WIND       PRES   REMARKS
SWIFT CURRENT  MOCLDY   -17 -20  86 W9        30.59R WCI -36
REGINA         N/A      -20 -26  73 NW7       30.65R WCI -37
VAL MARIE      N/A       -8 -13  78 N6         N/A   WCI -21
ASSINIBOIA     N/A      -17 -22  77 W6         N/A   WCI -32
CORONACH       N/A      -15 -20  77 W9         N/A   WCI -33

$$




USA.gov is the U.S. government's official web portal to all federal, state and local government web resources and services.